Regional Weather Roundup
Issued by NWS

Home | Current Version | Previous Version | Text Only | Print | Product List | Glossary Off
Versions: 1 2 3 4 5 6 7 8 9 10 11 12 13 14 15 16 17 18 19 20 21 22 23 24 25 26 27 28 29 30 31 32 33 34 35 36 37 38 39 40 41 42 43 44 45 46 47 48 49 50

000
ASUS45 KTFX 240910
RWRMT
MONTANA REGIONAL WEATHER ROUNDUP
NATIONAL WEATHER SERVICE GREAT FALLS MT
300 AM MDT MON APR 24 2017

NOTE: "FAIR" INDICATES FEW OR NO CLOUDS BELOW 12000 FEET WITH NO
SIGNIFICANT WEATHER AND/OR OBSTRUCTIONS TO VISIBILITY.

MTZ001>007-043-241000-
WEST OF THE DIVIDE

CITY           SKY/WX    TMP DP  RH WIND       PRES   REMARKS
KALISPELL      CLOUDY    40  39  97 NW3       29.70F
MISSOULA       CLOUDY    41  38  89 N3        29.75F
BUTTE          LGT RAIN  38  33  82 NW3       29.72F
MULLAN PASS    LGT SNOW  30  30 100 VRB5      29.70F VSB 1
ANACONDA         N/A     37  36  93 NE3       29.74S
DEER LODGE       N/A     39  36  87 CALM      29.76F
EUREKA           N/A     39  36  87 S5        29.71S
HAMILTON         N/A     41  36  81 S5        29.75F
LIBBY            N/A     41  41 100 CALM      29.71F
$$

MTZ008-052>055-241000-
SOUTHWEST MONTANA

CITY           SKY/WX    TMP DP  RH WIND       PRES   REMARKS
BOZEMAN        CLOUDY    40  38  93 SE7       29.70F
DILLON         CLOUDY    39  34  82 SW10      29.70F
W YELLOWSTONE  FOG       32  32 100 NE5       29.77F VSB 3/4
ENNIS          MOCLDY    36  32  87 CALM      29.76F
THREE FORKS      N/A     41  41 100 CALM      29.73F
$$

MTZ009-010-012-014-046-048-049-054-241000-
EAST SLOPES AND CENTRAL MONTANA

CITY           SKY/WX    TMP DP  RH WIND       PRES   REMARKS
CUT BANK       CLOUDY    38  34  85 CALM      29.66F
GREAT FALLS    CLOUDY    39  36  89 SW8       29.67F
MALMSTROM AFB  CLOUDY    40  38  93 SW7       29.67F
HELENA         CLOUDY    45  35  68 CALM      29.70F
AUGUSTA        MOCLDY    40  30  67 NW8       29.67F
BOWMANS CRNR   CLOUDY    40  32  74 SW5       29.66F
CHOTEAU          N/A     41  37  87 W6        29.69S
FAIRFIELD      MOCLDY    39  35  87 W5        29.66F
POWER          MOCLDY    37  35  93 CALM      29.66F
RAYNESFORD     MOCLDY    40  37  86 CALM      29.67F
ULM            MOCLDY    40  37  89 CALM      29.67F
$$

MTZ011-013-016-021-045-047-050-051-241000-
NORTH CENTRAL MONTANA

CITY           SKY/WX    TMP DP  RH WIND       PRES   REMARKS
HAVRE          PTCLDY    36  35  96 E3        29.66F
LEWISTOWN      CLOUDY    38  37  97 S8        29.67F
N BAR RANCH      N/A     37  36  93 NW15      29.70S WCI  28
CHINOOK          N/A     36  36 100 E7        29.68F WCI  30
DENTON         MOCLDY    39  37  92 MISG      29.64S
FORT BENTON      N/A    N/A N/A N/A MISG      29.67F
GEYSER         MOCLDY    36  33  92 SW5       29.67F
GRASS RANGE    MOCLDY    42  39  89 SW14      29.63F
JUDITH GAP     CLOUDY    36  35  97 N6        29.68F WCI  31
STANFORD       MOCLDY    37  36  94 SW6       29.67F
WINIFRED         N/A     42  37  83 W3        29.65F
$$

MTZ017>020-022>027-061-062-241000-
NORTHEAST MONTANA

CITY           SKY/WX    TMP DP  RH WIND       PRES   REMARKS
GLASGOW        CLOUDY    32  30  92 E14       29.70F WCI  22
JORDAN           N/A     39  37  92 E6        29.66F
SIDNEY         MIX PCPN  32  30  92 E7        29.72F WCI  26
WOLF POINT     FRZ RAIN  33  31  92 E10       29.73F FOG     WCI  25
MALTA          CLOUDY    36  34  93 E6        29.70F FOG     WCI  31
PLENTYWOOD       N/A     28  28 100 E8        29.75F WCI  20
POPLAR           N/A     30  28  93 E9        29.74S WCI  22
$$

MTZ028>42-056>058-241000-
SOUTHCENTRAL AND SOUTHEAST MONTANA

CITY           SKY/WX    TMP DP  RH WIND       PRES   REMARKS
BAKER          MIX PCPN  32  30  92 E9        29.65F FOG     WCI  24
BILLINGS       CLOUDY    43  38  82 CALM      29.67F
LIVINGSTON     CLOUDY    41  38  89 W6        29.69F
MILES CITY     CLOUDY    41  39  93 NW6       29.66F
BIG TIMBER     PTCLDY    43  36  75 W22       29.70F
LAUREL           N/A     42  35  76 CALM      29.69S
ROUNDUP          N/A     43  39  85 S2        29.62F
$$

REGIONAL REPORTS...DAKOTAS

CITY           SKY/WX    TMP DP  RH WIND       PRES   REMARKS
WILLISTON      MIX PCPN  31  28  89 E9        29.75F WCI  23
MINOT          FLURRIES  31  27  85 E9        29.81R WCI  23
DICKINSON      FRZ RAIN  28  27  96 NE16      29.64F VSB 1/4 WCI  16
BEACH          DRIZZLE   30  30 100 E12       29.68F WCI  21
TIOGA          LGT SNOW  27  27 100 E16G23    29.75F WCI  14
WATFORD CITY   CLOUDY    30  30 100 E10       29.71F WCI  21
BISMARCK       CLOUDY    33  32  96 NE13      29.73F WCI  24
GRAND FORKS    CLOUDY    35  32  88 NE15      29.81F WCI  25
FARGO          CLOUDY    36  30  79 E10       29.73F WCI  28
BUFFALO SD       N/A     34  33  96 NE8       29.57R WCI  27
RAPID CITY     CLOUDY    39  37  92 N5        29.55F
$$

REGIONAL REPORTS...WYOMING/IDAHO/WASHINGTON

CITY           SKY/WX    TMP DP  RH WIND       PRES   REMARKS
GILLETTE       CLOUDY    46  45  96 N9        29.63F
SHERIDAN       CLEAR     40  37  89 W7        29.68S
BUFFALO WY     CLEAR     44  37  76 NW17G29   29.67F
CODY           CLOUDY    36  33  89 CALM      29.72F
YELLOWSTONE LA   N/A     26  26 100 CALM      29.78F
IDAHO FALLS    CLOUDY    46  37  71 SW12      29.74F
SALMON         CLOUDY    43  36  75 W6        29.75F
BOISE          CLOUDY    49  40  71 SE9       29.72F
SPOKANE        CLOUDY    45  38  76 S16       29.72F
$$

REGIONAL REPORTS...ALBERTA

CITY           SKY/WX    TMP DP  RH WIND       PRES   REMARKS
EDMONTON       CLOUDY    32  30  93 E5        29.73F
CALGARY        DRIZZLE   34  32  93 E6        29.68S FOG     WCI  29
LETHBRIDGE     MOCLDY    41  39  93 NW6       29.65F
MEDICINE HAT   CLOUDY    45  41  87 W12       29.65F
WATERTON GATE    N/A     39  27  60 SW13        N/A  WCI  32
CARDSTON         N/A     37  27  65 SW2         N/A
MILK RIVER       N/A     39  37  93 W7          N/A
ONEFOUR          N/A     37  37 100 E5          N/A
$$

REGIONAL REPORTS...SASKATCHEWAN

CITY           SKY/WX    TMP DP  RH WIND       PRES   REMARKS
SWIFT CURRENT  CLOUDY    30  30 100 SE9       29.69F WCI  22
REGINA         SNOW      28  27  93 SE18      29.83F VSB 1/2 WCI  16
SASKATOON      CLOUDY    32  28  86 SE18G24   29.85F WCI  20
CYPRESS HILLS    N/A     32  30  93 SW1         N/A
VAL MARIE        N/A     34  32  93 SE5         N/A
ROCKGLEN         N/A     27  27 100 SE9         N/A  WCI  17
$$



USA.gov is the U.S. government's official web portal to all federal, state and local government web resources and services.